Torna al catalogo

RASSVET-3 28

AttivoPO
NORAD 100094·PAYLOAD·🇷🇺 Russia

Lanciato Jul 19, 2026 da Plesetsk Cosmodrome

Loading…

Prossimi Passaggi (prossime 24 ore)

TLE

AggiornatoSource: Space-Track

Epoca: Sep 14, 2026, 05:32 UTC

1 A0094U 26165M   26257.23100633 -.00086225  00000-0 -83289-3 0  9991
2 A0094  82.3009 167.9921 0009849 196.3285 163.7659 15.66636630  8902

Traccia RASSVET-3 28 in tempo reale con AllMySat

Download on the App Store